Temp
24 24 24 24 24 24 24 24 24 24 24 23 24 24 24 24 24 24 24 24 25 25 25 25 25 25 25 25 25 25 25 25 25 25 24 24 24 24 24 24 23 24 24 24 24 24 24 24 24 24 24 24 24 24 24 24 24 24 24 24 24 24 24 23 22 22 23 25 25 25 25 25 25 25 25 25 25 25 24 24 24 24 23 23 23
24 24 24 24 24 24 24 24 24 23 23 23 23 24 24 24 24 24 24 24 24 25 25 25 25 25 25 25 25 25 25 25 25 25 25 24 24 24 24 24 23 24 24 24 24 24 24 24 24 24 24 24 24 24 24 24 24 24 24 24 24 24 24 24 23 22 22 24 24 24 25 25 25 25 25 25 25 25 24 24 24 24 24 24 23
24 24 24 24 24 24 24 24 24 23 23 23 23 24 24 24 24 24 24 24 24 24 25 25 25 25 25 25 25 25 25 25 25 25 25 25 25 24 24 24 24 24 24 24 24 24 24 24 24 24 24 24 24 24 24 24 24 24 24 24 24 24 24 24 23 23 22 23 24 24 24 24 24 25 25 25 25 25 24 24 24 24 24 24 24
25 24 24 24 24 24 24 24 23 23 23 23 23 24 24 24 24 24 24 24 24 24 24 24 24 24 24 24 25 25 25 25 25 25 25 25 25 25 24 24 24 24 24 24 24 23 23 24 24 24 24 24 24 24 24 24 24 24 24 24 24 24 24 23 23 23 23 23 23 24 24 24 24 24 24 24 24 24 24 25 24 24 24 24 24
25 25 24 24 24 24 24 24 23 23 23 23 23 23 23 24 23 24 24 24 24 24 24 24 24 24 24 24 24 25 25 25 25 25 25 25 25 25 24 24 24 24 24 24 23 23 23 23 24 24 23 23 24 24 24 24 24 24 24 24 24 24 24 23 23 23 23 22 23 23 23 23 23 24 24 24 24 24 24 24 24 24 24 24 24
25 25 25 24 24 24 24 24 23 23 23 23 23 23 23 23 23 23 23 23 23 23 24 24 24 24 24 24 24 25 25 25 25 25 25 25 25 25 24 24 24 24 24 24 24 23 23 23 24 23 23 23 24 24 24 24 24 24 24 24 24 24 23 23 23 23 22 22 22 22 23 23 23 23 23 23 23 24 24 24 24 24 24 23 23
25 25 25 24 24 24 24 24 24 23 23 23 23 23 23 23 23 23 23 23 23 23 23 24 24 24 24 24 24 24 24 24 24 24 24 24 24 24 24 24 24 24 24 24 24 23 23 23 23 23 23 23 23 24 24 24 24 24 24 24 24 23 23 23 23 22 22 22 22 22 22 22 22 22 23 23 23 23 23 23 23 24 24 24 24
25 25 25 24 24 24 24 24 24 24 24 23 23 23 23 23 23 23 23 23 23 23 23 24 24 24 24 24 24 24 24 24 24 24 24 24 24 24 24 24 24 24 24 24 24 23 23 23 23 23 23 23 23 24 24 23 23 23 23 24 23 23 22 22 22 22 22 21 21 21 21 21 22 22 22 22 21 22 22 22 22 23 23 23 23
25 25 25 25 24 24 24 24 24 24 24 23 23 23 23 23 23 23 23 23 23 24 24 24 24 24 24 24 24 24 24 24 24 24 24 24 24 24 24 24 24 24 23 23 23 23 23 23 23 23 23 23 23 23 23 23 23 23 23 23 23 22 22 22 22 21 21 21 21 21 21 21 21 21 21 21 21 22 22 22 22 22 22 22 22
26 25 25 25 25 24 24 24 24 24 24 24 23 23 23 23 23 23 23 23 23 24 24 24 24 24 24 24 24 24 24 24 24 25 25 24 24 24 24 24 24 23 23 23 23 23 23 23 23 23 23 23 23 23 23 23 23 23 23 23 23 23 22 22 21 21 21 20 20 21 20 20 21 21 21 21 22 22 22 21 21 21 21 21 21
26 25 25 25 25 24 24 24 24 24 24 24 23 23 23 23 23 23 23 23 23 23 24 24 24 24 24 24 24 24 24 24 24 25 25 25 24 24 24 24 23 23 23 23 23 23 23 23 23 23 23 23 23 23 23 23 23 23 23 23 23 23 22 22 22 21 21 21 21 21 21 21 21 22 22 22 22 21 21 21 21 21 20 20 20
26 25 25 25 25 25 24 24 24 24 24 24 23 23 23 23 23 23 23 23 23 23 23 24 24 24 24 24 24 24 24 24 24 25 25 25 25 24 24 24 24 23 23 23 23 23 23 23 23 23 23 23 23 23 23 23 23 23 23 23 23 23 23 22 22 22 22 21 21 21 21 21 21 22 22 22 22 22 21 21 21 20 20 20 20
26 26 25 25 25 25 24 24 24 24 24 24 23 23 23 23 23 23 23 23 23 23 23 23 24 24 24 24 24 24 24 24 24 25 25 25 25 24 24 24 24 24 24 24 24 24 23 23 23 23 23 23 23 23 23 23 23 23 23 23 23 23 23 23 23 22 22 22 21 21 22 22 22 22 22 22 22 22 21 21 21 21 20 20 20
26 26 26 25 25 25 25 24 24 24 24 24 23 23 23 23 23 23 23 23 23 23 23 23 24 24 24 24 24 24 24 24 24 24 25 25 25 24 24 24 24 24 24 24 24 24 24 23 23 23 23 23 23 23 23 23 23 23 23 23 23 23 23 23 23 22 22 22 22 22 22 22 22 23 23 23 22 22 22 21 21 21 21 21 22
26 26 26 26 25 25 25 24 24 24 24 24 24 23 23 23 23 23 23 23 23 23 23 23 24 24 24 24 24 24 24 24 24 25 25 25 25 24 24 24 24 24 24 24 24 24 24 24 24 24 24 23 23 23 23 23 23 23 23 23 23 23 23 23 23 23 23 23 23 23 23 23 23 23 23 23 23 23 22 22 22 22 22 21 21
27 26 26 26 26 25 25 25 24 24 24 24 24 23 23 23 23 23 23 23 23 24 23 24 24 24 24 24 24 24 24 25 25 25 25 25 24 24 24 24 24 24 24 24 24 24 24 24 24 24 24 24 24 24 24 24 23 23 23 23 23 23 23 23 23 23 23 23 23 24 24 24 24 24 24 23 23 23 22 22 22 21 21 20 20
27 27 26 26 26 26 25 25 25 24 24 24 24 24 24 24 23 23 23 23 24 24 24 24 24 24 24 24 24 24 24 25 25 25 25 25 25 25 25 24 24 24 24 24 24 24 24 24 24 24 24 24 24 24 24 24 24 23 23 23 23 23 23 23 23 23 23 23 24 24 24 24 24 24 24 24 23 23 21 21 21 21 20 19 20
27 27 27 26 26 26 26 25 25 25 24 24 24 24 24 24 24 24 24 24 24 24 24 24 24 24 24 24 24 24 24 25 25 25 25 25 25 25 25 24 24 24 24 24 24 24 24 24 24 24 24 24 24 24 24 24 24 23 23 23 23 23 23 23 23 23 23 23 23 23 23 23 23 23 23 23 23 22 21 20 21 21 20 19 19
27 27 27 27 27 26 26 26 25 25 25 25 24 24 24 24 24 24 24 24 24 24 24 24 24 24 24 24 25 25 25 25 25 25 25 25 25 25 25 24 24 24 24 24 24 24 24 24 24 24 24 24 24 24 24 24 24 23 23 23 22 23 23 23 23 23 23 23 23 22 22 22 22 22 22 22 22 22 21 20 20 21 20 20 19
28 28 28 27 27 27 26 26 26 25 25 25 25 25 25 25 24 24 24 24 24 24 24 24 24 24 24 25 25 25 25 25 25 25 25 25 25 25 25 25 24 24 24 24 24 24 24 24 24 25 25 24 24 24 24 24 23 23 23 23 22 23 23 23 23 22 21 21 22 22 21 21 21 21 21 21 21 22 21 21 20 20 20 20 19
29 28 28 28 27 27 27 26 26 26 26 26 25 25 25 25 25 24 24 24 24 24 24 24 24 25 25 25 25 25 25 25 25 25 25 26 26 26 26 25 25 25 24 24 24 24 24 24 24 24 24 24 24 24 23 23 23 23 23 23 22 23 22 22 22 20 19 19 21 22 21 21 21 21 21 21 21 21 21 21 21 20 20 20 19
29 29 28 28 28 27 27 27 26 26 26 26 26 25 25 25 25 25 25 24 24 24 24 24 24 25 25 25 25 25 25 26 26 26 26 26 26 26 26 26 26 26 25 24 24 24 24 24 24 24 24 23 23 23 23 23 23 22 22 22 22 22 21 21 21 20 18 18 19 20 20 21 21 21 21 21 21 21 21 21 21 21 21 20 20
29 29 28 28 28 28 27 27 27 26 26 26 26 26 25 25 25 25 25 25 24 24 24 24 24 25 25 25 25 25 26 26 26 26 26 26 26 26 26 26 27 26 26 25 24 24 24 24 23 23 23 23 23 23 23 23 22 22 22 22 21 21 21 21 21 20 18 18 18 18 19 19 20 20 20 21 21 21 21 21 21 21 21 21 21
29 28 28 28 28 28 28 27 27 27 27 26 26 26 26 25 25 25 25 25 24 24 24 24 24 24 25 25 25 25 26 26 26 26 26 26 27 27 27 27 27 26 25 25 24 24 23 23 23 23 23 23 23 23 23 22 22 22 22 22 22 22 21 21 20 19 17 17 17 17 18 18 18 19 19 20 20 20 20 20 20 21 21 21 21
29 29 28 28 28 28 27 27 27 27 27 26 26 26 26 25 25 25 25 25 24 24 24 24 24 24 24 25 25 25 25 26 26 26 26 26 26 27 27 27 26 26 25 24 23 23 23 23 23 23 23 23 23 22 22 22 22 22 22 22 21 21 20 19 18 17 16 16 16 16 17 17 17 18 18 18 18 18 19 19 19 20 20 20 20
28 28 28 28 28 28 27 27 27 27 27 27 26 26 26 25 25 25 25 25 24 24 24 24 24 24 24 25 25 25 25 25 25 25 26 26 26 26 26 26 26 25 24 23 22 22 22 22 22 22 22 22 22 22 22 22 22 22 22 21 21 20 19 18 17 16 16 16 16 16 16 16 17 17 17 17 17 17 18 18 18 18 19 19 19
28 28 28 28 28 27 27 27 27 27 27 27 26 26 26 26 25 25 25 24 24 24 24 24 24 24 24 24 24 24 24 24 24 24 25 25 25 26 26 25 25 24 23 23 22 22 22 22 22 22 22 22 22 22 22 22 22 22 22 21 21 20 19 18 17 16 16 16 16 16 16 16 16 16 16 16 16 16 17 17 17 17 17 18 18
27 27 27 27 27 27 27 27 27 26 26 26 26 26 26 25 25 25 25 25 25 25 24 24 24 24 24 24 23 23 23 23 24 24 25 25 25 25 25 25 24 24 23 23 22 22 22 22 22 22 22 22 22 22 22 22 22 22 21 21 21 20 19 18 18 17 16 15 15 15 15 15 15 15 15 15 15 15 16 16 16 16 16 17 17
26 26 26 26 26 26 27 27 26 26 25 25 24 24 24 25 25 25 25 25 25 25 25 25 25 25 25 25 23 22 22 23 24 25 25 25 25 25 25 24 24 24 23 23 22 22 22 22 22 22 22 22 22 22 22 22 22 21 21 20 20 20 20 19 18 17 17 16 15 14 14 14 14 14 14 14 14 14 15 15 15 15 16 16 16
26 26 26 26 26 26 26 26 25 25 24 24 23 22 22 23 24 24 25 25 25 25 25 26 26 26 25 25 24 24 24 24 24 24 25 25 25 25 25 24 24 24 23 23 23 22 22 22 22 22 22 21 21 20 19 20 21 21 21 20 20 20 20 19 18 18 17 16 15 14 14 14 14 14 14 14 14 14 14 14 14 15 15 15 16
26 25 25 25 25 25 25 24 24 23 23 23 22 21 21 21 22 23 24 25 25 25 25 25 26 26 26 25 24 24 24 24 24 24 24 24 24 24 24 24 24 23 23 23 23 23 23 22 21 20 19 18 17 17 16 17 17 18 19 20 20 20 20 19 18 17 16 15 14 14 14 14 14 14 14 14 14 14 14 14 14 15 15 15 16
25 25 25 25 25 25 24 23 22 22 21 21 22 22 21 21 20 21 22 24 24 24 25 25 25 25 25 25 25 23 23 24 24 24 24 23 23 23 23 23 23 22 22 23 23 22 21 20 18 16 16 16 15 15 15 15 15 15 17 19 20 20 19 18 17 17 16 15 14 14 14 14 14 14 14 14 13 13 14 14 14 15 15 15 16
25 25 25 25 24 23 23 22 21 21 21 21 22 22 22 21 20 19 19 21 22 23 23 23 24 24 24 24 24 23 23 23 23 23 23 22 22 22 22 22 22 21 22 23 22 19 17 16 15 15 14 15 15 15 14 15 16 17 18 18 19 19 19 18 17 17 17 16 15 15 14 14 14 14 13 13 13 13 13 14 15 15 15 16 16
26 25 25 24 24 23 22 21 21 21 21 22 22 22 22 22 21 20 19 19 20 20 20 21 21 22 22 22 22 22 22 21 21 22 21 21 21 21 22 21 21 20 21 22 21 17 15 14 14 14 15 15 14 14 15 16 18 18 18 18 19 19 18 18 17 17 17 16 16 15 15 15 14 14 13 13 13 13 13 14 14 15 15 16 16
25 25 24 24 23 23 22 22 21 21 21 21 22 22 21 21 21 21 20 19 18 17 17 18 19 20 21 21 21 21 21 20 20 20 20 20 20 20 21 21 19 18 18 19 18 16 14 14 15 15 15 15 15 15 17 18 19 18 18 18 19 19 18 18 18 17 16 16 15 15 15 15 14 14 13 13 13 13 13 13 13 13 14 15 16
23 24 23 23 22 22 21 21 21 21 21 21 21 21 21 20 20 20 19 19 17 16 16 17 18 19 19 19 20 20 20 19 19 19 19 19 19 20 21 20 18 17 17 17 16 16 15 16 16 15 15 16 17 17 18 18 18 18 18 18 18 18 18 17 17 17 16 16 15 15 15 15 14 14 13 13 13 13 13 13 13 13 13 13 14
21 22 22 22 22 21 21 20 20 20 20 20 20 20 19 19 19 19 18 17 17 16 15 16 17 17 18 18 18 18 18 18 18 18 18 18 18 20 20 20 19 18 17 16 16 16 16 16 16 16 17 17 17 18 18 18 18 17 17 18 18 17 17 17 17 17 17 16 16 16 15 15 14 14 14 13 13 13 13 13 13 13 13 13 13
21 21 21 21 21 21 20 20 20 20 20 19 19 19 19 18 18 18 17 17 16 15 15 16 16 16 16 17 17 17 17 17 17 17 17 17 18 19 19 19 19 18 17 16 17 17 17 17 17 17 17 17 17 17 17 17 17 17 17 18 18 17 17 17 17 17 17 17 16 16 15 15 14 14 14 14 14 14 14 13 13 13 13 13 13
21 21 21 21 20 20 20 20 19 19 19 19 19 19 18 18 18 17 17 16 16 16 16 16 16 16 16 16 17 17 17 17 16 16 16 16 17 18 18 18 18 18 17 17 17 17 17 17 17 17 17 17 17 17 17 17 17 17 17 17 17 17 17 17 17 17 17 17 17 16 16 15 15 14 14 14 14 14 14 14 14 13 13 13 13
20 20 20 20 20 19 19 19 19 19 18 18 18 18 18 18 17 17 17 17 16 16 16 16 15 16 16 17 17 17 17 16 16 16 16 16 16 17 17 17 17 17 17 16 16 16 16 16 16 16 16 16 16 16 16 16 17 17 17 17 17 17 17 17 16 16 17 17 17 17 16 16 15 15 15 15 14 15 15 15 15 14 14 14 14
20 19 19 19 19 19 19 19 19 19 18 18 18 18 18 17 17 17 17 16 16 16 16 16 15 16 16 17 17 17 17 16 16 16 16 16 16 16 16 16 16 16 16 16 16 16 16 16 16 16 16 16 16 16 16 16 16 16 16 16 16 16 17 17 16 16 16 17 17 17 17 16 16 15 15 15 14 15 15 16 16 16 16 15 15
19 19 18 18 18 18 18 18 18 18 18 18 18 17 17 17 17 16 16 16 15 15 15 15 15 15 16 16 16 16 16 16 15 16 16 15 16 16 16 16 15 15 15 15 16 16 16 16 16 16 16 16 16 16 16 16 16 16 16 16 16 16 16 16 16 16 16 16 17 17 17 17 16 16 16 15 15 15 15 15 16 16 16 16 16
19 18 18 17 17 16 16 17 18 18 17 17 16 16 16 16 16 15 15 15 15 15 14 14 14 15 15 15 16 15 15 15 15 15 15 15 15 15 15 15 15 15 15 15 15 16 16 16 16 16 16 16 16 16 16 16 16 16 16 16 16 16 16 16 16 16 16 16 16 16 16 16 17 17 16 16 16 15 15 15 15 15 15 15 15
18 17 17 16 16 15 15 15 15 16 15 15 15 15 15 15 14 14 14 14 14 14 14 14 14 14 14 15 15 15 14 14 14 14 14 15 15 15 15 15 15 15 15 15 16 16 16 16 16 15 16 16 16 16 16 16 16 16 16 16 16 16 16 16 16 16 16 16 16 16 16 16 16 17 17 17 16 16 16 15 15 15 15 15 15
16 16 15 15 14 14 14 13 13 13 13 13 13 13 13 13 13 13 13 13 13 13 13 13 13 13 13 14 14 14 13 13 13 14 14 14 14 14 14 14 15 15 15 15 15 16 16 16 15 15 15 15 16 16 16 16 16 16 16 16 16 16 16 16 16 16 16 16 16 16 16 16 16 16 17 17 17 17 17 16 16 16 16 16 16
15 15 14 14 13 13 13 13 13 12 12 12 12 11 11 11 11 11 11 11 12 12 12 12 12 12 12 12 12 12 12 12 12 12 13 13 13 13 14 14 14 15 15 15 15 15 15 15 15 15 15 15 15 16 16 16 16 16 16 16 16 16 16 16 17 17 17 17 17 17 17 17 17 17 17 16 16 17 17 17 16 16 16 17 17
14 14 13 13 12 12 12 12 12 11 11 11 11 10 10 10 10 10 10 10 11 11 11 11 10 10 10 10 10 11 11 11 11 11 11 12 12 13 13 13 13 14 14 14 14 14 15 15 15 15 15 15 15 15 16 16 16 16 16 16 16 16 16 17 17 17 17 17 17 17 17 17 17 17 17 17 16 16 17 17 17 16 16 16 16
12 12 12 12 11 11 11 10 10 10 10 10 9 9 9 9 9 9 9 9 9 9 9 9 9 9 9 9 9 9 9 9 9 9 9 10 11 11 12 12 12 12 13 13 13 13 13 13 14 14 14 14 15 15 15 15 15 16 16 16 16 16 16 16 17 17 17 17 17 17 17 17 18 18 18 17 17 17 16 17 17 17 16 16 16
11 10 10 10 10 10 10 9 9 9 9 9 9 8 8 8 8 8 8 8 8 8 8 8 8 8 8 8 8 8 8 8 7 7 7 8 9 10 10 11 11 11 11 11 11 12 12 12 12 13 13 13 14 14 14 14 15 15 15 15 15 16 16 16 16 16 17 17 17 17 17 17 17 17 17 18 18 18 17 17 17 16 16 16 16
10 10 9 9 9 9 9 9 8 8 8 8 8 8 8 7 7 7 7 7 7 7 7 7 7 7 7 6 6 7 7 7 6 6 6 7 7 8 9 9 9 9 10 10 10 10 10 11 11 11 11 12 12 12 13 13 13 13 14 14 14 15 15 16 16 16 16 16 16 16 16 17 17 17 17 17 18 18 18 18 17 17 17 16 16
9 9 9 9 9 9 8 8 8 8 8 8 7 7 7 7 6 6 6 6 6 6 6 6 6 6 6 6 6 6 6 6 6 6 6 6 6 7 7 7 7 8 8 8 8 9 9 9 10 10 10 10 11 11 11 11 12 12 13 13 14 14 15 15 15 15 15 15 16 16 16 16 16 16 17 17 17 17 17 17 18 18 18 17 17
Height
764 767 770 773 776 779 782 785 788 791 794 796 798 799 802 803 806 809 811 813 815 817 818 820 821 823 824 825 826 828 829 830 831 832 834 835 835 837 838 839 840 840 842 842 843 844 844 844 844 845 846 846 847 848 848 849 849 850 850 850 850 851 851 851 850 845 843 844 844 845 845 846 845 844 845 845 845 846 846 846 846 846 846 846 846
761 764 768 771 773 775 779 782 785 788 791 794 795 797 799 801 803 806 808 810 812 814 816 817 819 820 822 823 824 825 827 828 829 830 831 832 833 834 836 837 838 838 839 840 840 841 842 842 842 843 844 844 844 845 846 847 848 848 848 848 848 848 848 848 848 845 842 841 842 843 843 844 843 843 843 843 843 844 844 843 843 843 843 843 843
758 762 765 768 770 773 776 779 782 785 788 790 792 794 796 798 801 803 805 807 809 811 813 815 817 818 819 821 822 823 825 826 827 828 829 830 831 832 833 834 835 835 836 837 837 839 839 840 840 841 842 842 842 843 843 844 845 846 846 846 846 845 846 846 846 845 842 840 839 840 841 842 842 842 842 842 842 842 841 841 841 841 841 841 841
756 759 762 765 768 771 774 776 779 782 784 787 789 792 794 796 798 800 802 805 807 809 811 813 815 816 817 819 820 821 822 823 824 825 826 827 828 829 830 831 832 832 833 834 835 836 837 837 837 838 840 840 840 840 841 841 842 843 843 843 843 843 844 845 844 844 842 839 838 839 840 840 840 841 841 841 840 840 839 838 838 837 837 838 837
753 756 759 762 766 768 771 774 776 779 781 784 786 789 792 794 796 798 800 802 804 806 808 810 812 813 814 816 817 818 819 820 822 823 824 825 826 827 828 829 829 830 830 831 832 833 834 834 835 836 837 837 837 838 838 838 839 840 840 840 841 841 842 843 843 842 841 839 837 837 838 838 838 838 839 839 838 837 836 835 835 834 834 834 833
749 752 756 759 762 765 768 771 773 776 778 781 784 786 789 791 793 795 797 799 801 803 805 807 809 810 811 813 814 815 816 818 819 820 821 823 824 825 825 826 827 827 828 829 830 831 832 832 832 834 835 835 834 834 835 836 837 837 838 838 838 839 840 841 841 841 839 837 836 835 835 835 835 834 835 835 835 834 833 832 831 830 830 829 828
745 749 752 756 759 761 764 767 769 772 775 778 781 784 786 788 790 792 794 796 798 800 802 804 805 807 808 810 811 812 814 815 817 818 819 820 821 822 823 823 824 824 825 826 827 828 829 829 830 831 832 832 831 831 832 833 834 834 835 835 836 837 837 837 838 838 836 835 834 833 832 831 831 830 831 832 831 830 829 828 826 824 825 824 823
742 746 749 752 755 757 759 763 766 769 772 775 778 780 783 785 787 789 791 793 795 796 798 800 802 804 805 807 808 810 812 813 814 815 816 817 818 819 820 821 821 822 822 823 825 825 826 826 827 828 829 829 828 829 830 831 832 832 832 833 834 834 834 834 834 834 833 832 831 830 829 828 828 827 827 828 827 824 823 823 820 818 819 819 818
738 742 746 748 751 753 757 760 763 767 770 772 775 777 779 782 784 786 788 789 791 793 795 797 799 801 802 804 806 808 809 810 810 811 812 813 815 816 817 818 818 819 820 821 822 823 823 824 825 825 825 825 826 827 827 829 830 830 829 830 831 831 831 831 831 831 830 830 828 827 826 825 825 824 823 822 821 818 818 820 817 814 816 816 814
735 739 742 744 748 752 755 759 761 764 767 768 771 773 776 779 781 783 784 785 787 789 792 794 796 797 799 801 803 804 806 806 806 807 808 810 811 813 814 815 816 817 818 819 819 820 820 821 822 822 823 823 824 824 824 825 826 826 826 827 828 829 829 829 828 828 828 827 825 824 824 821 821 821 819 817 817 816 816 816 814 812 814 814 809
731 735 738 741 746 749 752 755 758 761 763 765 767 770 773 775 777 779 781 782 784 786 788 790 792 794 795 797 799 800 801 801 802 803 805 806 808 810 811 812 814 814 815 816 816 817 818 818 819 819 820 820 820 820 821 822 822 822 822 823 825 826 826 825 825 825 825 824 822 822 821 818 816 816 815 814 813 812 812 812 812 811 811 810 805
728 731 734 738 742 745 748 751 754 757 759 761 764 766 770 772 774 776 777 779 781 783 784 786 788 790 792 793 795 796 796 796 798 800 801 803 805 807 809 810 811 811 812 813 813 814 815 815 816 816 816 817 817 817 818 818 818 818 818 819 821 821 821 821 820 821 821 820 818 817 816 814 812 811 811 810 809 808 808 808 807 806 805 804 800
724 727 730 734 737 740 744 747 750 753 755 758 761 763 766 768 770 772 774 776 779 780 781 782 784 786 788 790 791 792 792 793 795 796 798 799 802 804 806 807 808 808 809 810 810 811 811 812 812 812 813 813 814 815 814 814 814 814 814 815 815 816 815 814 815 817 818 817 815 812 811 811 808 804 805 807 805 804 804 802 801 799 797 796 792
721 724 727 730 733 736 740 743 746 749 751 754 757 760 762 763 766 769 772 774 775 776 777 779 780 782 784 785 787 788 788 789 791 793 794 796 799 801 803 804 805 806 806 807 807 807 807 808 809 809 809 810 811 811 811 811 810 809 809 810 809 810 809 808 810 813 814 813 811 805 803 805 802 797 800 803 801 799 797 795 793 792 789 787 786
716 719 723 726 729 732 736 739 742 745 748 751 753 755 757 759 762 765 767 769 770 771 773 775 776 778 780 782 783 784 784 785 788 790 791 793 796 799 801 801 802 802 803 803 803 803 804 805 805 806 806 807 807 808 807 808 807 806 806 805 804 804 803 803 806 808 807 806 805 800 796 797 797 793 794 796 794 791 789 787 786 785 783 783 783
713 715 719 722 725 728 731 735 738 740 743 746 749 751 753 754 757 760 763 765 766 768 769 770 772 774 776 778 780 780 780 782 784 786 788 791 794 796 797 798 798 799 799 799 800 800 800 801 802 802 802 803 803 804 804 804 803 803 801 800 799 798 796 798 802 803 802 800 798 794 791 790 790 789 788 788 787 785 785 784 782 780 781 781 778
709 712 715 718 721 724 727 730 733 736 739 742 744 746 748 750 753 756 758 760 762 763 764 766 768 770 772 774 776 775 775 778 781 783 785 789 791 793 793 794 794 795 795 795 796 796 797 798 798 799 799 799 799 800 800 801 800 798 797 796 794 792 791 795 798 796 796 794 790 788 786 784 784 784 783 782 782 782 783 781 776 775 777 776 773
706 708 711 714 717 720 723 726 728 731 734 737 739 741 743 746 748 751 753 755 756 758 760 762 764 767 768 770 771 771 772 775 777 779 781 785 787 788 789 790 790 791 791 791 792 792 793 794 795 795 795 795 795 795 796 797 796 794 794 793 790 787 788 793 793 791 789 787 783 782 781 779 778 778 777 777 776 778 779 775 770 771 772 770 769
702 705 708 711 713 716 719 721 724 727 729 732 734 736 739 741 743 746 748 749 751 753 756 758 760 762 764 765 767 768 769 771 773 775 777 780 782 783 785 786 786 787 787 787 788 788 789 790 790 791 790 790 791 791 793 794 792 791 791 791 788 784 784 788 789 787 785 782 779 778 776 773 772 772 771 771 770 771 771 768 766 767 765 762 764
698 701 704 707 709 712 715 717 720 722 725 727 729 732 734 736 739 742 743 745 748 750 752 754 756 757 760 762 763 764 765 766 769 771 773 776 777 779 781 781 781 782 783 783 783 784 785 785 786 786 786 786 787 789 790 790 789 788 788 788 785 781 781 784 784 783 783 781 777 774 771 770 769 769 767 765 764 763 762 760 759 758 755 753 755
696 698 700 703 706 708 710 713 715 718 720 722 725 727 730 732 735 737 739 742 744 746 748 750 752 754 756 758 760 760 761 762 764 766 769 771 773 775 776 776 777 778 778 779 779 780 781 781 782 782 783 784 784 785 785 786 785 784 784 783 782 780 779 780 779 777 778 778 774 770 768 767 765 763 761 759 756 754 753 751 749 748 746 745 744
693 694 697 699 702 704 706 709 711 714 717 719 722 724 726 729 731 733 736 738 740 742 745 747 749 751 753 755 756 756 757 758 760 762 764 766 768 770 771 771 773 774 774 775 775 776 777 778 779 780 781 781 781 781 781 781 781 780 780 779 779 778 777 775 774 773 773 773 770 766 765 762 758 756 754 751 749 747 746 744 741 739 737 734 733
690 692 694 696 698 700 703 705 708 711 713 716 718 720 723 725 728 730 732 735 737 739 741 744 746 748 749 751 752 752 753 755 757 759 760 762 764 766 767 768 769 770 770 771 772 774 775 776 777 777 778 778 778 778 778 778 777 777 777 776 775 774 773 772 771 770 769 768 766 763 760 757 754 751 748 745 743 742 740 738 735 732 728 725 722
689 690 691 693 695 697 700 702 705 707 709 712 715 717 719 722 724 727 729 731 734 736 738 740 742 744 746 747 748 749 750 752 753 755 757 759 761 762 763 765 766 767 768 769 770 771 772 773 774 775 775 776 776 776 775 775 775 774 774 773 772 771 770 769 768 767 766 765 763 761 758 755 752 749 745 742 739 737 735 731 726 724 721 716 712
685 687 688 690 693 695 697 700 702 704 706 708 711 713 716 719 721 723 726 728 730 732 734 736 738 740 742 743 744 745 747 748 750 752 753 755 757 758 760 761 763 764 765 766 768 769 770 771 772 772 773 773 773 773 773 773 772 772 771 770 769 768 767 766 765 764 763 762 761 758 755 753 750 746 742 738 735 733 729 723 717 715 713 709 703
682 684 685 687 689 692 694 697 699 701 703 705 707 709 712 714 717 719 721 724 726 728 730 733 735 737 739 740 741 743 744 745 747 748 750 752 754 755 757 759 760 761 763 764 765 766 767 769 770 770 770 770 770 771 770 770 770 769 768 767 766 765 764 763 762 762 760 759 757 755 751 748 746 742 738 735 732 728 723 717 712 708 706 704 698
680 681 682 684 687 689 691 693 696 698 701 703 705 707 709 711 713 715 717 720 722 725 727 730 732 734 736 737 739 740 741 743 744 746 748 749 751 752 754 755 757 758 760 761 763 764 765 766 767 768 768 768 768 769 768 768 767 767 766 765 764 763 762 761 760 759 757 756 753 750 747 744 741 738 734 731 727 722 718 715 709 703 700 700 693
679 680 681 682 684 685 687 690 693 695 698 701 703 705 707 709 711 713 714 717 719 722 724 726 728 730 732 734 736 738 739 740 742 743 745 746 748 749 751 752 754 756 757 759 761 762 764 765 765 766 766 766 767 766 766 766 765 764 764 763 762 761 760 759 757 756 754 752 750 747 744 741 738 734 730 726 721 717 714 712 706 699 695 694 688
678 679 680 681 682 683 685 688 690 692 695 698 701 704 706 708 709 711 713 715 717 719 721 722 724 726 728 730 732 734 736 738 739 741 743 744 746 747 748 750 752 754 756 757 759 760 762 763 764 764 764 764 764 764 764 763 763 763 762 761 761 760 758 756 754 753 751 749 747 744 741 738 734 730 727 722 717 713 710 707 701 695 691 688 682
677 678 680 681 682 683 685 687 688 690 693 695 698 701 704 706 708 710 712 714 715 717 719 720 722 724 726 727 729 731 733 735 737 739 741 743 745 746 748 749 751 753 754 756 757 759 760 761 762 762 762 762 762 762 762 762 762 761 761 761 760 758 756 755 753 752 750 748 745 743 740 736 732 729 725 720 713 707 703 700 696 691 687 682 677
677 678 679 680 681 683 684 685 687 689 692 694 696 699 702 705 707 709 710 712 714 716 718 719 721 722 724 725 727 730 732 734 736 738 740 742 744 745 747 749 750 752 753 755 756 757 758 759 760 761 761 761 761 762 762 762 762 762 761 760 758 757 755 754 753 751 749 747 744 741 738 735 732 727 723 718 711 703 698 693 690 686 682 678 673
677 678 678 680 681 682 683 685 686 689 691 694 696 698 701 704 706 709 710 711 713 715 716 718 720 721 722 724 725 728 731 733 735 737 739 742 744 745 747 749 750 751 753 753 755 756 757 758 759 759 760 761 761 762 762 762 762 761 760 758 757 756 755 754 753 751 748 745 743 739 736 733 730 726 721 716 709 702 694 688 684 680 676 672 669
677 678 678 679 680 682 683 685 687 689 690 693 695 697 699 702 704 707 710 711 713 714 716 717 719 720 722 724 725 727 730 733 734 736 739 741 743 745 747 749 750 751 752 753 754 755 756 757 758 760 760 761 761 762 762 762 761 760 759 758 757 757 756 754 752 750 748 745 742 739 736 733 729 725 720 714 708 701 693 686 680 676 672 668 665
677 677 678 679 680 681 683 685 687 689 691 692 694 696 698 700 702 705 708 710 713 715 717 719 720 721 722 725 727 728 731 733 735 736 739 741 743 745 747 748 750 751 752 753 753 754 756 757 758 759 760 760 761 761 761 760 759 759 758 758 758 757 755 754 752 750 748 745 743 740 736 732 728 723 718 713 707 701 694 687 681 675 670 665 661
678 678 678 679 680 681 683 685 686 689 691 692 694 696 698 700 702 704 706 708 712 716 719 721 722 723 724 727 729 731 733 735 737 738 740 742 744 746 747 748 749 751 752 752 753 754 756 757 758 758 759 760 760 760 759 759 758 758 758 757 757 756 755 753 751 750 748 746 743 740 736 732 727 723 719 714 709 703 696 690 684 677 669 663 660
679 679 679 680 681 682 684 685 687 689 690 692 695 697 698 700 702 704 706 708 711 715 719 722 724 725 727 730 732 734 735 737 739 741 742 743 745 747 747 748 749 750 752 753 754 755 755 756 757 757 758 758 758 758 758 757 757 757 757 757 756 755 753 752 751 750 749 747 744 740 736 732 727 723 720 716 711 706 701 695 689 682 674 667 664
681 681 680 681 682 684 685 687 689 690 692 693 695 697 700 702 704 705 708 710 713 716 719 721 723 726 730 733 735 736 738 739 741 743 744 745 746 748 748 748 749 750 752 753 754 754 755 756 756 757 757 757 757 757 757 757 757 757 757 757 756 754 753 752 751 750 749 747 744 741 737 733 729 725 722 719 714 710 706 701 695 690 684 677 674
683 683 683 683 684 685 686 688 690 692 694 696 697 699 701 704 706 708 710 713 716 719 721 723 724 726 730 734 737 738 739 741 742 744 746 747 748 748 748 749 750 751 752 753 754 754 755 756 756 756 757 756 756 756 756 757 757 757 757 756 755 754 753 752 751 750 749 747 745 742 738 735 731 728 725 722 718 714 711 706 701 696 692 688 685
685 686 686 686 687 688 688 690 692 694 696 698 700 701 702 704 707 710 713 715 717 720 723 726 727 729 731 735 738 739 740 742 744 745 747 749 749 749 749 750 750 751 752 753 754 755 756 756 756 756 756 756 756 756 757 757 757 757 757 756 755 753 753 752 751 750 748 747 745 742 740 736 733 730 727 725 722 719 715 711 707 703 699 696 695
687 688 689 689 689 691 692 693 694 696 698 699 702 703 704 705 708 711 715 717 719 722 725 728 731 733 734 736 738 740 742 744 746 747 748 748 749 750 750 751 751 752 754 755 756 756 757 757 756 756 756 756 757 757 758 758 758 757 756 755 754 753 753 752 751 750 748 747 745 743 741 738 735 733 730 728 726 723 719 715 712 708 705 702 701
689 691 693 693 692 693 695 696 697 699 701 702 704 705 707 708 710 713 717 719 722 724 726 730 734 736 737 738 740 742 744 745 747 747 748 749 750 751 752 752 753 754 756 756 757 757 757 756 756 756 756 757 758 758 758 758 758 757 756 754 754 753 753 752 751 750 749 747 745 744 742 740 737 735 733 731 729 726 723 719 716 713 709 707 706
691 693 695 697 697 696 697 698 699 701 704 706 707 708 710 711 713 716 719 722 725 727 729 732 736 738 739 740 742 743 745 746 747 748 749 750 751 752 753 754 755 756 757 757 757 757 756 755 756 757 758 758 758 758 758 758 757 756 755 754 754 753 753 752 751 750 749 748 746 745 743 741 739 737 736 734 732 729 726 723 720 717 714 712 710
692 694 697 700 701 701 701 700 700 702 706 709 710 711 713 715 716 718 721 725 728 730 732 735 738 739 741 742 743 744 746 747 748 749 750 751 752 753 754 755 756 756 757 757 756 756 756 756 757 758 758 758 758 758 758 757 756 755 755 754 754 753 753 752 751 750 749 748 747 745 744 743 741 739 738 736 734 732 730 727 725 722 719 717 715
694 696 698 701 703 705 706 705 703 703 707 711 714 715 716 718 720 721 723 727 730 733 735 737 739 741 742 744 745 746 747 749 750 751 751 752 753 754 755 756 756 757 756 756 756 756 757 757 758 758 758 758 758 758 757 756 755 755 755 755 754 753 753 752 751 750 748 747 746 745 745 744 742 741 740 738 736 734 732 730 728 726 724 722 719
697 699 700 702 705 708 709 711 711 709 709 712 716 719 720 722 724 725 727 730 734 736 738 740 742 743 744 745 747 748 749 750 751 752 752 753 754 755 756 756 757 756 756 756 757 757 758 758 758 759 759 759 758 758 757 756 756 756 755 755 754 753 753 752 751 750 748 747 746 745 744 743 743 742 740 739 738 736 734 733 731 729 727 725 723
699 702 703 705 708 710 712 715 717 717 715 715 718 721 724 726 728 729 731 734 736 738 740 742 744 746 746 747 749 750 751 752 753 753 754 755 756 756 757 757 757 757 757 758 758 758 759 759 759 759 759 759 758 758 757 757 757 756 756 755 755 754 753 752 751 750 748 747 745 744 743 742 742 741 740 739 738 737 735 734 733 731 730 728 726
702 704 707 709 711 713 715 717 720 721 722 722 724 726 728 731 733 735 736 737 738 741 743 745 747 748 748 749 750 751 752 753 754 755 756 757 757 757 757 757 757 758 758 759 759 759 759 760 760 759 759 759 758 758 757 757 757 757 756 755 755 754 753 752 751 750 748 747 745 744 743 742 741 740 739 738 738 737 736 735 734 733 732 730 729
707 707 709 712 715 717 719 721 722 724 726 727 729 731 733 735 738 740 741 741 742 745 747 748 749 750 750 751 752 753 754 756 757 757 758 758 758 758 759 759 759 759 760 760 760 760 760 760 760 760 759 759 758 758 758 757 757 756 756 755 755 754 753 752 751 750 748 747 745 744 743 742 741 739 738 738 737 736 736 735 734 734 733 732 731
715 714 715 716 718 721 723 725 726 728 730 731 732 735 737 740 742 744 745 745 747 750 751 751 752 752 753 755 755 756 757 758 759 760 760 760 760 760 761 761 761 761 761 761 762 761 761 761 761 760 760 760 759 758 758 757 757 756 756 755 754 754 753 752 751 750 748 747 746 744 743 741 740 739 738 737 737 736 735 735 734 734 733 732 731
721 722 722 723 724 726 727 729 731 733 734 735 736 739 741 744 746 747 748 750 752 753 754 754 755 756 757 758 758 759 760 760 761 762 762 762 763 763 763 763 763 763 763 764 764 763 763 762 762 761 761 760 760 759 758 758 757 756 755 755 754 753 753 752 750 749 748 746 745 744 743 741 740 740 739 738 737 736 735 735 734 733 733 732 732
728 728 729 730 731 731 732 733 735 737 738 739 741 743 745 747 749 751 752 754 755 756 757 758 759 759 760 761 761 762 762 763 763 764 764 765 765 765 765 766 766 766 766 766 766 765 765 764 764 763 762 762 761 760 759 759 758 757 756 755 754 753 752 751 749 748 747 746 744 743 742 741 740 740 739 738 737 736 736 735 734 733 733 732 731
Wind_Speed
41 40 40 40 39 38 39 39 38 38 36 35 36 36 35 35 35 35 34 35 34 34 33 33 33 33 33 33 33 32 31 29 29 28 28 28 27 27 27 27 27 27 27 26 26 25 25 25 25 24 25 26 27 27 26 26 25 24 23 22 21 19 19 19 16 17 24 24 22 22 20 20 23 25 26 26 27 27 30 32 33 33 33 32 30
40 40 39 39 40 39 39 39 39 38 36 35 36 36 35 35 35 34 34 35 35 35 35 35 34 34 34 35 34 34 33 31 30 30 30 30 29 29 28 28 29 29 29 29 29 28 28 28 28 27 25 26 27 28 29 29 28 28 27 25 25 24 22 22 20 18 23 27 26 24 23 22 23 25 25 26 26 26 28 30 32 34 35 34 33
41 40 39 39 40 40 39 39 39 38 37 37 37 37 36 36 35 35 35 35 34 35 35 35 35 34 34 35 35 35 35 33 32 31 31 31 31 31 30 30 30 31 31 31 31 31 30 31 31 30 28 28 28 28 29 30 30 30 31 29 29 28 26 25 24 22 23 28 28 26 25 25 25 26 27 27 26 26 27 29 30 33 35 35 35
40 39 38 39 39 38 38 38 38 38 38 38 38 37 37 35 35 35 35 34 33 34 35 35 34 34 34 34 35 36 36 36 35 34 33 33 32 32 32 32 32 32 33 33 33 32 32 33 33 32 31 31 31 30 29 30 31 31 32 33 32 32 31 28 27 27 25 26 29 29 27 26 27 27 27 28 28 28 28 29 30 32 34 35 36
38 38 38 38 37 37 37 37 37 38 38 38 38 37 36 35 34 34 34 33 33 34 34 34 34 34 35 35 36 36 37 37 37 36 35 34 34 34 33 33 34 34 34 34 34 33 33 34 35 34 32 32 33 33 33 32 32 31 32 33 34 34 33 31 30 30 28 28 30 30 28 27 28 28 27 27 28 29 30 30 31 32 34 35 37
38 39 39 37 36 37 37 37 37 38 38 37 37 36 36 35 35 34 34 34 33 33 33 34 34 35 36 36 37 37 38 37 37 37 36 35 35 35 34 34 35 35 35 35 34 34 34 35 36 34 33 33 35 35 35 34 34 33 33 34 34 33 33 32 32 31 31 32 32 31 31 31 30 30 29 28 28 29 31 32 33 33 35 36 38
38 39 38 37 37 38 38 38 38 38 38 37 37 36 36 35 35 35 34 34 34 33 33 33 34 35 36 36 37 38 37 37 37 37 36 36 36 36 35 35 36 36 36 36 35 35 35 36 36 34 34 35 37 37 36 35 34 35 35 35 34 32 31 32 33 32 32 32 32 32 33 33 31 32 32 29 27 29 31 31 33 35 36 39 40
37 37 36 36 37 39 40 40 40 39 38 37 37 36 36 36 36 35 34 34 34 34 34 34 34 35 35 36 36 36 35 35 36 36 37 37 36 36 37 37 36 36 36 36 35 35 35 36 36 35 36 37 38 38 37 36 34 34 35 35 34 32 31 31 31 31 31 31 30 32 32 31 30 31 31 27 25 30 33 32 34 37 36 38 41
36 36 35 37 38 39 39 38 38 37 36 36 37 37 37 36 36 36 36 35 35 35 35 34 34 35 35 36 36 35 35 36 37 38 38 38 37 37 37 37 37 36 36 35 35 35 35 35 36 36 37 38 39 39 38 37 35 35 36 36 33 32 32 31 29 29 29 28 29 30 28 27 28 29 29 29 30 34 34 30 33 38 35 34 39
36 35 36 37 37 36 35 35 35 35 36 37 38 37 37 36 36 36 37 37 36 36 35 34 34 35 36 36 36 35 36 38 40 41 41 40 38 37 36 37 37 36 35 34 34 34 35 35 36 37 37 38 39 39 40 40 39 39 40 38 35 33 32 30 29 29 28 26 28 29 25 25 29 30 32 35 35 34 33 29 30 34 30 28 34
35 35 36 36 36 35 35 35 35 36 37 38 37 37 36 36 36 36 36 37 36 36 35 35 35 36 36 36 36 36 38 41 42 42 42 42 40 38 36 36 36 35 35 35 34 34 34 34 36 36 36 37 39 40 40 41 41 42 42 42 40 37 35 33 32 31 29 27 29 29 26 27 32 33 33 35 35 34 34 31 30 29 25 22 25
35 36 36 36 36 36 36 36 36 37 38 38 37 37 36 36 36 36 36 36 36 35 35 35 36 36 35 36 36 37 39 42 43 43 43 43 42 40 38 36 35 35 36 36 36 35 34 34 35 35 36 37 38 39 40 41 42 42 43 43 43 43 42 41 38 34 31 30 30 31 30 31 35 36 34 35 36 35 32 31 31 31 30 27 26
35 36 36 37 37 37 37 36 36 37 37 37 37 36 35 36 36 36 35 35 34 34 35 35 36 36 36 36 36 38 40 42 42 43 43 43 43 42 40 37 35 35 36 36 36 37 36 35 35 35 37 37 36 37 38 40 41 42 43 43 43 44 46 47 46 42 38 35 33 35 36 34 36 40 39 36 35 34 31 32 34 34 33 33 35
34 35 36 37 37 37 37 36 36 37 37 37 36 35 36 36 37 36 34 33 34 34 35 35 36 36 36 37 37 38 40 41 41 42 43 43 42 41 41 40 38 37 36 36 37 37 37 37 36 36 37 36 35 36 37 38 39 40 41 41 42 44 46 48 48 47 46 44 42 43 45 41 41 46 45 39 36 36 35 36 37 38 38 39 43
35 35 36 36 37 37 36 36 36 37 37 36 36 36 37 37 37 36 35 35 35 36 35 35 36 36 37 38 37 38 40 41 40 41 42 42 41 40 40 41 40 39 38 37 38 39 38 37 36 37 37 36 35 36 36 37 38 39 39 40 41 43 45 46 45 44 47 48 49 52 53 50 48 50 50 45 43 44 44 43 43 42 39 37 38
34 35 35 35 36 36 36 36 36 36 36 36 36 36 37 37 37 36 35 35 36 35 35 35 36 36 37 37 37 38 41 41 40 40 40 39 38 38 39 40 41 40 40 39 39 39 39 37 37 37 37 37 37 38 38 38 37 37 38 39 40 41 43 42 41 42 44 46 49 52 55 55 53 54 54 51 49 48 45 42 42 41 34 28 30
33 34 34 35 36 36 37 37 37 37 36 36 36 37 37 37 37 36 35 35 35 35 36 36 36 35 36 36 37 39 41 40 38 39 38 35 35 36 38 40 40 40 41 41 40 40 39 39 37 37 37 38 38 39 39 38 38 38 38 39 40 41 40 36 35 38 41 44 48 50 52 54 54 55 57 56 55 53 43 36 39 39 30 23 24
32 33 34 35 36 37 38 38 38 37 36 36 37 38 38 37 37 37 36 36 36 37 36 35 35 34 35 36 38 39 40 38 37 37 36 34 34 36 38 39 39 39 40 41 41 41 40 40 39 38 38 39 40 40 39 38 39 39 38 38 38 39 37 31 30 35 37 39 43 45 47 50 51 54 56 57 58 57 47 42 45 41 30 24 23
33 33 35 36 37 38 38 39 39 38 37 37 38 38 38 38 37 37 37 37 37 37 35 34 34 34 35 36 37 38 39 37 36 37 35 34 34 35 36 37 37 37 38 39 40 40 39 39 39 39 41 42 41 41 39 36 37 38 37 35 35 38 38 33 30 32 32 34 37 38 40 44 45 48 51 52 54 57 54 53 53 45 37 33 27
34 35 36 37 38 38 38 39 39 38 37 38 39 39 39 37 36 36 36 36 35 34 33 33 33 34 34 34 35 37 38 37 36 36 35 34 34 34 34 36 36 36 37 37 37 37 37 38 39 40 41 41 39 38 36 35 36 38 37 34 34 38 39 34 30 27 23 28 36 39 39 40 39 39 42 43 45 49 51 54 55 52 48 42 34
33 34 36 37 37 38 38 39 40 40 40 39 39 38 37 36 35 35 35 34 34 33 32 32 32 33 32 32 34 36 38 38 37 36 35 35 34 33 34 36 36 36 37 36 35 35 35 35 36 35 34 33 32 32 31 32 32 34 35 34 35 37 37 34 33 27 20 25 37 41 40 40 39 38 39 40 41 43 44 47 50 52 52 48 42
33 34 35 36 37 38 38 38 39 39 39 38 36 36 36 35 35 35 34 32 32 31 31 30 30 30 30 31 32 35 36 37 36 36 36 36 35 34 35 36 36 36 36 35 34 34 33 31 28 27 26 26 26 26 26 26 26 27 28 29 29 31 31 31 32 28 19 20 29 33 35 38 40 40 41 42 42 42 42 43 46 48 51 53 52
29 31 33 35 36 37 38 38 38 37 37 37 36 35 35 34 33 33 32 31 30 30 29 29 28 28 28 29 31 33 34 35 35 35 35 35 35 35 36 36 36 37 36 34 31 29 27 24 23 22 22 22 22 23 23 23 23 24 25 25 26 28 28 28 28 26 20 19 24 29 33 36 38 39 41 43 43 42 41 42 44 46 48 51 55
23 27 30 32 34 35 36 36 36 36 36 36 35 34 33 32 32 31 31 30 29 28 27 27 27 26 26 27 29 31 32 32 32 33 33 33 33 34 35 35 36 37 36 33 29 25 23 21 19 19 19 19 21 22 23 23 23 24 24 24 24 24 23 23 23 21 19 18 20 25 29 32 34 36 39 41 42 42 43 45 46 48 49 51 54
21 25 29 30 31 33 33 34 35 35 35 34 34 33 32 31 29 29 29 29 28 27 26 26 26 25 25 25 27 28 28 28 29 29 31 31 32 32 33 34 35 36 34 30 27 24 22 21 20 20 20 21 22 22 21 20 20 19 18 17 17 17 17 17 17 17 17 18 19 22 27 30 32 34 38 40 42 43 45 48 49 49 49 51 54
20 24 26 28 30 31 30 31 32 33 33 33 33 33 33 31 30 29 29 29 28 27 26 25 24 24 24 25 25 25 24 24 25 26 27 28 29 30 31 32 34 34 32 28 25 23 21 20 20 19 18 17 15 14 13 12 12 11 11 11 12 13 14 16 16 17 17 19 21 23 26 29 31 34 37 38 40 42 44 46 47 47 46 45 47
18 21 24 26 27 29 29 29 29 30 31 31 30 30 31 31 30 29 28 27 26 25 24 23 22 22 22 23 22 21 21 21 21 21 22 23 24 25 26 28 28 28 26 24 22 19 16 14 12 10 9 8 7 6 6 6 6 7 8 10 12 14 16 17 16 17 18 19 22 25 28 30 32 34 36 36 38 42 43 43 43 44 44 41 41
15 19 21 23 26 28 29 29 28 28 27 26 25 25 25 26 27 27 27 27 25 24 24 23 24 24 24 23 21 19 18 19 19 19 19 20 20 20 20 21 21 20 18 17 14 11 9 7 6 5 4 3 1 1 3 4 6 8 10 12 15 17 19 20 21 21 22 23 24 27 30 31 32 34 36 36 38 41 41 40 40 42 42 38 36
12 15 17 20 23 25 26 27 27 26 24 22 20 18 18 21 22 22 23 25 25 25 25 26 27 27 27 26 23 21 19 20 19 18 17 17 17 17 17 17 17 16 15 14 12 10 9 7 5 4 2 2 2 4 6 7 9 11 13 15 17 20 22 23 25 26 27 28 28 29 31 32 33 35 36 36 39 41 41 40 40 41 40 36 32
9 11 13 16 19 21 22 24 25 26 25 24 21 17 13 14 17 18 20 22 24 25 25 26 27 28 27 26 26 24 24 23 21 19 18 17 16 16 16 16 16 15 14 13 11 10 9 7 5 4 5 6 7 8 10 11 12 13 14 15 18 21 23 24 26 28 29 29 28 29 30 31 32 34 35 37 42 46 46 43 41 39 37 33 29
7 9 11 14 17 19 21 23 24 25 25 25 24 20 15 11 11 13 16 19 20 22 23 23 25 25 25 25 25 23 22 22 22 21 20 20 18 17 17 16 15 15 14 13 12 11 9 8 8 8 8 9 9 10 11 12 11 10 12 15 19 21 23 24 26 27 28 28 28 29 30 30 31 34 36 38 43 47 47 44 40 38 36 32 29
6 8 10 13 16 19 22 23 24 24 24 24 23 22 19 16 12 8 8 12 15 17 18 19 20 22 24 25 23 20 20 22 24 23 21 20 19 18 18 17 16 15 14 13 12 12 10 10 10 10 9 9 9 9 9 8 8 8 11 15 19 21 22 23 25 26 26 27 28 29 30 31 31 34 36 38 41 44 45 43 39 35 33 29 27
6 9 12 15 17 19 21 23 24 25 25 25 24 23 22 20 17 16 13 10 9 11 12 14 17 20 21 21 21 21 24 25 25 23 22 21 20 20 20 18 17 15 13 12 13 13 12 12 11 10 8 8 8 7 6 6 7 9 11 13 16 19 21 22 23 23 24 26 26 27 29 30 31 32 34 36 39 41 42 41 36 31 27 24 22
7 10 13 17 20 21 22 23 24 24 25 25 25 23 22 22 23 22 20 17 15 13 12 13 15 17 19 19 20 23 25 25 24 24 23 22 21 21 20 19 17 14 12 12 13 14 14 12 11 9 8 7 6 5 5 6 9 10 11 12 14 17 19 20 21 21 23 24 24 25 27 29 29 30 32 34 36 37 36 36 33 29 25 22 21
8 11 14 17 20 22 23 24 25 25 25 24 24 23 23 23 24 24 24 23 22 21 19 19 19 20 21 21 22 24 25 24 24 23 22 22 21 20 19 19 17 15 13 13 14 14 13 11 10 9 7 6 5 6 7 9 10 10 11 12 14 16 19 20 19 19 21 22 22 23 25 27 28 29 30 31 31 32 32 33 33 31 26 23 20
7 11 15 17 19 21 22 23 24 25 25 23 23 23 23 24 24 24 25 26 26 26 25 24 24 24 23 23 23 24 24 23 22 21 20 20 19 17 17 17 17 15 14 13 13 13 12 10 9 8 7 7 7 8 9 9 10 10 10 11 12 14 17 17 17 17 19 20 21 23 24 26 27 29 29 28 28 30 30 31 32 30 26 19 12
5 9 14 17 18 19 20 20 21 22 23 23 24 23 23 23 23 24 25 25 25 26 27 28 28 26 24 23 23 23 23 22 21 19 18 17 15 14 14 15 16 15 14 13 12 11 11 10 9 8 8 9 9 9 9 9 9 9 9 9 10 12 14 14 14 15 16 18 20 22 23 24 25 26 26 26 26 28 30 30 30 29 29 28 25
4 7 11 15 18 20 21 21 21 22 23 23 24 25 25 23 23 23 24 24 24 24 23 24 27 28 26 24 22 22 22 22 20 19 16 14 14 14 14 15 15 15 14 13 12 11 11 10 10 10 10 10 10 10 9 8 8 8 8 9 10 11 12 13 14 13 14 16 18 19 20 21 22 23 23 23 24 25 27 28 29 28 28 29 27
8 8 11 15 17 19 22 23 23 23 24 23 23 24 25 25 24 23 23 24 24 23 21 21 22 25 27 26 24 23 23 22 21 20 17 15 14 15 15 15 15 15 15 13 12 12 11 11 10 10 10 10 10 9 8 7 7 7 8 8 10 11 13 15 16 14 14 15 16 17 17 19 19 19 20 21 22 24 26 28 29 28 28 30 29
12 12 13 16 18 19 19 21 22 22 23 23 22 22 24 25 25 24 24 23 22 22 22 21 21 23 26 26 24 23 23 22 20 20 18 17 16 15 15 15 16 15 14 13 12 11 10 10 10 10 10 9 8 7 6 6 6 6 7 8 10 12 14 15 15 15 15 14 14 15 16 16 16 17 18 18 18 21 24 27 28 29 30 30 31
16 16 14 16 19 21 20 20 20 20 20 21 22 21 22 23 24 24 23 22 22 23 24 23 21 21 22 21 21 21 22 22 20 19 18 17 17 16 16 15 15 14 12 11 10 9 9 10 10 9 9 7 6 5 4 4 4 6 8 10 11 12 13 14 14 14 14 14 13 13 13 13 14 14 14 14 14 15 19 24 27 30 30 30 31
20 19 17 15 17 20 21 21 22 22 21 20 21 21 21 23 25 25 24 23 23 24 24 22 19 18 18 18 20 21 22 21 20 18 18 16 16 16 15 14 12 11 10 9 8 8 8 8 7 6 6 5 4 4 3 3 5 7 8 10 11 12 12 13 14 14 13 13 13 12 11 10 10 10 10 11 12 12 14 17 21 25 27 28 29
23 23 21 18 17 17 18 22 26 27 23 21 22 24 25 25 25 26 26 25 24 24 25 23 22 21 21 21 22 23 22 21 20 19 18 16 15 14 13 11 10 9 8 8 8 7 6 5 4 4 4 4 4 3 3 4 5 7 8 9 11 11 11 11 12 13 12 11 11 11 10 9 9 8 8 8 9 10 10 11 13 15 18 19 20
26 26 25 23 22 20 19 20 25 29 28 25 24 26 27 27 26 27 27 26 24 24 25 24 24 25 24 23 23 23 22 21 20 19 18 17 16 15 13 12 10 9 9 8 7 6 5 4 4 4 4 4 4 3 3 4 6 7 8 10 11 11 10 9 10 12 12 11 10 9 8 9 9 9 9 8 7 6 7 8 8 9 9 10 11
27 28 28 27 26 25 24 22 22 26 29 29 27 26 25 26 26 27 27 26 25 25 25 24 24 25 24 24 23 22 21 21 20 19 18 18 16 15 14 12 11 10 10 9 8 6 6 5 5 5 5 5 5 5 4 5 6 7 8 9 11 12 11 10 11 12 11 11 10 9 8 7 7 8 9 9 8 6 5 4 4 4 5 6 8
28 28 28 28 28 27 27 26 25 26 29 30 29 27 26 25 25 26 26 26 26 26 25 24 24 23 23 23 22 21 21 20 19 18 17 16 15 15 14 13 11 10 10 9 8 7 7 7 7 7 7 7 7 7 7 6 6 6 7 8 9 10 11 11 12 13 12 11 10 10 10 10 10 10 10 10 8 7 6 5 4 3 3 4 5
29 29 29 28 27 27 27 27 27 27 28 29 29 29 28 26 26 26 27 28 28 27 26 25 24 23 23 22 22 21 20 19 18 17 16 15 14 14 13 13 12 11 10 9 9 8 8 8 8 8 8 8 8 7 7 6 6 5 6 6 8 9 10 11 12 13 13 12 11 10 11 12 13 13 13 12 9 7 6 6 6 5 3 2 2
25 29 29 29 28 28 27 27 29 29 29 29 30 30 29 28 28 28 29 29 29 27 26 26 25 25 24 23 22 21 20 19 19 18 17 16 14 13 13 13 13 12 12 11 10 10 9 9 8 8 7 7 7 7 6 5 5 4 4 5 6 8 9 10 11 12 13 13 12 11 11 12 12 12 12 12 10 8 7 6 6 6 5 4 3
24 25 27 29 30 28 27 27 28 28 28 30 32 32 31 31 30 29 29 30 29 28 27 26 26 25 24 23 23 22 21 20 21 20 19 19 18 17 15 15 14 14 13 13 13 12 12 11 10 9 9 8 8 8 7 6 6 5 5 5 5 6 7 8 10 10 11 11 12 13 13 12 11 10 9 10 10 9 8 7 8 7 7 7 6
26 26 27 28 29 28 28 28 29 28 28 30 31 30 30 30 29 29 30 30 29 28 28 27 27 26 25 24 24 24 23 23 23 23 22 22 21 20 19 18 18 17 17 16 15 14 14 13 12 12 11 11 10 9 9 9 8 8 8 7 6 5 6 7 8 8 9 9 10 11 12 12 12 11 10 9 9 9 9 9 9 9 9 9 8
31 29 28 27 26 27 29 31 32 32 32 32 30 29 28 29 29 29 29 29 28 27 27 27 27 26 26 25 25 25 24 24 23 23 22 22 22 21 20 20 20 19 18 18 17 16 15 15 14 14 14 13 12 12 12 12 11 10 9 8 7 5 5 5 6 7 7 8 8 9 10 10 11 11 11 11 10 9 9 9 10 10 10 10 10
Wind_Direction
200 201 201 202 204 205 206 208 209 211 211 212 213 214 215 215 217 219 220 223 224 225 227 228 228 229 230 232 233 233 234 235 235 236 237 239 241 242 242 241 242 244 244 244 246 247 248 251 252 252 252 250 249 246 243 241 243 246 249 254 256 256 254 243 239 259 270 269 267 266 262 258 257 257 260 262 262 260 258 257 255 253 251 252 252
201 202 202 202 204 205 206 208 209 210 211 212 214 215 215 216 217 217 219 222 224 225 227 229 229 229 229 231 232 233 234 235 235 235 236 238 240 241 241 240 241 242 243 244 246 246 247 249 252 253 254 254 254 252 249 247 245 247 248 251 254 254 254 250 246 253 267 270 269 268 264 259 257 260 261 263 266 267 263 260 258 255 252 252 253
201 202 202 203 205 206 206 207 208 209 210 212 214 215 216 217 217 218 220 222 223 226 228 229 230 229 229 229 231 232 233 235 235 235 236 237 239 240 240 240 241 241 241 244 245 246 246 248 251 253 253 254 255 255 255 252 250 249 250 250 253 254 254 253 251 250 260 268 270 270 268 264 263 265 267 269 271 272 270 267 264 259 256 253 253
201 201 202 204 205 205 206 207 208 209 210 212 214 216 217 217 217 219 221 222 224 226 228 229 230 230 229 229 229 231 232 233 234 235 236 237 238 239 240 240 241 241 242 244 245 245 245 247 250 252 251 252 254 255 256 255 254 252 251 251 252 254 255 255 255 254 256 264 269 270 271 271 271 272 273 272 272 271 271 271 267 263 260 256 254
200 200 202 204 204 205 206 207 208 208 210 212 214 216 217 218 218 220 221 222 224 226 228 229 229 229 229 229 229 230 231 232 232 234 236 237 238 239 240 240 241 242 244 245 245 245 245 247 250 251 249 250 253 255 255 255 255 254 254 254 253 254 255 255 256 257 257 260 266 270 272 273 274 274 273 272 272 270 268 268 266 263 260 257 254
199 200 202 202 203 204 206 207 208 209 210 212 214 216 217 217 218 219 221 222 224 225 226 227 228 228 230 231 230 231 231 231 231 233 235 236 238 239 240 240 242 244 245 246 247 247 246 248 250 249 248 249 252 254 255 255 255 255 255 257 257 255 255 255 256 257 257 259 264 269 270 271 271 272 272 270 268 267 266 266 264 261 258 255 253
199 200 201 201 202 204 205 207 209 210 211 212 214 216 216 217 218 219 220 221 222 224 225 226 228 229 230 231 231 232 231 231 231 233 234 235 237 238 239 240 241 243 245 247 247 248 248 249 250 249 249 250 253 254 255 254 255 255 256 257 258 256 255 255 255 254 255 257 260 264 266 268 268 269 270 269 267 264 261 260 259 258 254 252 252
198 200 200 201 203 205 206 208 209 210 211 212 214 216 217 217 218 219 220 221 222 224 225 227 228 229 230 231 232 232 231 232 233 233 234 235 236 237 238 239 240 242 244 246 247 247 249 250 251 251 252 253 254 255 255 254 254 256 258 258 257 256 255 255 254 253 253 255 258 260 263 265 267 268 269 266 259 258 255 250 252 255 253 251 252
197 198 200 203 205 207 207 208 209 209 210 212 214 215 217 218 218 219 220 220 222 223 225 227 229 230 231 232 232 232 232 233 235 235 236 235 235 236 237 238 240 241 243 245 246 247 249 250 251 253 254 255 257 258 258 258 256 256 259 259 257 255 254 253 252 252 252 254 258 261 262 262 263 264 264 259 254 256 258 252 250 254 255 254 255
196 197 200 204 206 207 207 208 208 209 210 212 214 215 216 217 218 219 220 221 222 223 224 226 227 230 232 233 233 233 233 235 237 237 238 237 236 236 236 238 239 241 243 244 246 248 249 250 252 254 256 257 259 261 261 261 260 259 261 260 257 255 254 252 252 251 251 252 256 259 260 261 261 259 259 260 260 260 260 254 252 256 257 257 259
195 198 201 204 205 206 207 208 208 210 211 213 214 215 216 217 219 220 221 221 222 222 223 224 226 229 231 232 233 233 234 236 238 239 240 239 238 236 236 238 239 241 243 244 246 248 249 251 253 254 256 257 259 261 262 263 263 262 263 262 259 257 255 253 252 251 250 251 254 257 257 259 263 261 260 262 263 260 258 254 253 255 253 251 257
195 198 201 203 204 205 206 207 208 210 212 213 214 215 216 217 219 220 221 222 222 222 223 224 226 228 230 232 233 233 235 237 238 239 240 240 239 238 237 238 239 241 243 244 247 248 249 251 253 254 255 256 258 260 262 264 264 264 265 264 262 260 258 256 255 253 251 252 254 255 254 257 263 263 260 261 262 260 258 255 251 249 247 244 247
196 199 202 202 203 204 205 206 207 209 212 213 214 215 215 217 219 220 221 222 222 223 224 225 227 228 229 231 233 234 237 239 239 240 241 241 241 239 238 238 240 242 243 245 247 249 250 251 252 254 255 256 257 259 260 263 265 265 265 265 263 262 261 260 258 255 255 255 256 258 257 257 261 263 263 262 261 260 257 253 250 247 244 242 245
197 199 202 203 203 204 204 205 207 209 211 212 213 213 215 217 219 220 222 222 223 224 224 225 227 228 229 231 233 236 238 240 240 240 241 242 241 240 240 239 240 242 244 246 247 249 250 251 251 253 256 256 256 257 259 260 263 264 264 264 263 263 263 262 260 258 256 255 256 259 261 259 259 264 266 264 260 258 256 254 253 250 246 247 252
197 200 202 203 203 203 203 205 207 209 211 211 212 213 214 217 218 219 220 221 223 224 224 225 227 229 230 232 234 237 239 241 241 242 243 243 242 241 241 241 242 243 245 247 248 250 251 251 252 254 256 257 257 257 258 259 261 262 262 263 264 264 264 264 263 262 260 259 258 260 264 263 261 264 266 264 261 260 259 258 258 257 255 255 256
198 200 202 203 203 203 203 204 206 208 209 209 211 213 214 216 217 217 219 221 223 225 225 226 227 228 230 232 234 238 241 242 242 243 244 244 243 242 242 242 243 244 246 247 249 251 252 252 252 255 256 258 259 260 261 261 260 260 261 262 263 263 263 264 264 265 265 264 263 264 267 268 266 266 267 265 263 262 263 263 261 259 257 255 254
200 201 202 203 204 204 204 204 206 207 208 208 210 213 215 216 217 217 217 219 222 224 225 226 227 228 230 232 234 238 241 242 243 244 245 244 242 242 242 242 242 244 247 249 250 252 253 253 254 255 256 258 260 261 262 262 260 260 260 263 264 265 265 266 267 267 267 267 267 267 269 270 270 269 269 267 265 263 262 261 261 257 251 247 251
201 202 203 204 205 205 205 206 206 207 207 207 210 213 215 216 217 216 217 218 221 223 224 226 228 228 230 231 234 237 241 243 243 244 245 244 242 242 242 241 241 243 246 249 251 252 254 255 255 255 256 259 260 262 263 261 260 260 260 263 266 268 269 270 269 270 270 270 270 269 268 270 270 268 268 268 267 264 259 256 260 261 254 247 248
203 202 203 205 206 206 206 207 207 207 207 208 211 213 215 216 217 217 217 219 221 223 223 225 227 228 230 232 234 238 241 243 244 244 244 243 242 243 241 239 239 242 245 248 251 252 254 255 256 257 258 260 261 262 263 261 261 262 263 264 267 270 274 275 273 272 272 270 270 270 269 270 270 269 268 268 268 266 260 257 259 259 258 254 247
204 204 205 206 207 207 207 207 208 209 209 210 213 214 215 216 216 216 217 219 221 223 223 224 226 228 230 231 233 237 240 242 243 244 244 243 243 243 241 238 238 241 244 247 250 252 254 255 257 259 260 262 263 264 265 264 264 265 265 263 264 270 276 279 278 278 276 275 276 276 275 277 278 276 274 273 271 268 264 260 257 254 254 254 248
205 205 205 205 207 208 208 208 209 210 211 212 213 215 216 216 215 215 216 217 219 221 222 223 226 228 230 230 232 235 238 240 242 242 243 243 243 242 240 239 240 242 244 246 248 251 253 256 258 261 263 265 267 268 268 268 267 267 267 266 268 273 278 281 284 288 286 279 279 280 281 283 282 279 277 276 273 271 267 263 259 254 252 251 248
207 206 204 204 207 208 209 210 210 211 212 213 213 214 215 216 215 215 215 216 217 219 220 222 224 227 229 230 231 235 237 239 241 242 243 243 243 242 242 243 245 245 244 245 248 250 253 256 259 262 264 266 269 270 271 271 271 271 274 276 279 282 285 288 292 298 297 282 280 283 285 285 284 283 281 279 276 275 271 267 264 261 256 253 249
209 207 205 205 206 208 209 210 210 210 212 212 212 214 215 215 215 215 214 214 216 218 219 220 222 225 228 229 231 234 237 239 240 241 243 244 244 244 245 248 250 248 244 244 247 250 253 255 257 259 261 264 268 270 272 274 276 278 282 285 288 291 295 297 301 305 302 284 276 277 280 282 283 284 283 283 282 281 278 275 272 268 264 260 256
214 210 208 207 207 208 209 210 210 211 212 211 211 213 213 213 213 213 213 212 213 216 217 217 218 221 225 227 231 233 236 238 239 240 241 242 243 244 245 246 246 244 242 242 244 247 249 250 250 253 257 263 267 270 273 276 280 284 288 291 294 297 301 305 309 312 308 292 279 276 279 283 283 283 284 286 286 286 284 281 278 273 270 266 262
213 212 210 209 208 208 208 210 210 211 212 211 210 211 211 210 210 211 211 210 211 213 215 214 215 218 221 225 229 232 233 234 234 234 235 237 239 240 242 243 241 239 239 239 241 244 246 250 254 260 265 269 271 274 277 281 285 289 292 297 303 309 316 323 326 324 314 301 292 286 285 287 286 286 288 288 288 288 286 283 281 278 275 272 268
212 211 210 209 209 207 207 208 209 211 212 211 211 211 210 209 208 208 208 209 210 211 212 211 212 214 218 224 227 227 226 227 229 229 230 232 234 235 237 238 238 238 237 237 241 246 251 256 262 265 267 270 273 278 283 288 294 301 309 319 328 339 348 349 342 330 317 309 303 297 294 294 293 292 292 290 288 287 285 283 283 282 280 278 276
217 212 210 209 207 205 204 204 206 208 210 211 212 212 211 209 208 207 206 206 207 208 209 209 208 209 214 218 220 219 218 218 220 222 223 225 228 230 231 232 233 234 234 235 238 244 247 250 252 253 256 263 272 285 299 313 325 333 343 354 5 11 10 2 349 336 326 317 311 306 305 305 304 301 299 296 292 289 288 286 284 283 283 283 279
227 218 213 209 205 203 202 201 201 201 203 205 207 209 210 210 210 210 209 207 206 206 205 205 205 207 210 209 205 201 203 207 210 212 215 217 217 217 217 219 220 220 218 216 215 214 212 212 214 219 230 239 257 347 12 16 15 16 21 25 25 20 12 4 356 347 338 330 322 318 317 315 312 309 306 302 297 295 295 292 287 285 286 284 279
244 229 219 209 204 201 198 196 195 192 190 191 192 195 202 206 208 211 213 212 211 210 208 207 209 211 210 208 201 193 193 199 203 204 204 204 204 202 196 193 192 191 189 189 185 178 177 182 185 182 172 129 72 46 36 33 35 37 37 32 25 16 9 3 357 350 344 338 332 328 325 322 317 315 313 309 305 304 303 299 293 289 286 283 278
260 238 222 209 203 197 189 186 186 184 180 177 174 171 178 194 201 205 209 212 215 215 215 217 218 217 213 210 208 208 209 204 194 187 184 181 181 181 177 175 176 175 174 175 174 170 169 164 151 130 105 82 63 51 43 39 38 36 31 26 20 12 7 3 356 350 345 340 336 331 327 324 321 319 318 314 312 312 310 306 299 293 287 282 278
259 232 217 205 197 189 182 178 177 175 172 171 167 160 152 155 176 194 204 209 212 214 217 222 223 222 219 214 209 211 213 201 184 176 174 169 167 167 165 165 167 167 168 170 164 158 156 146 124 104 93 81 67 57 49 40 31 20 15 18 18 12 5 360 354 349 345 342 339 335 332 329 326 324 322 318 316 316 315 311 305 296 288 281 277
244 213 203 197 188 181 177 173 169 166 164 163 164 160 149 134 123 132 177 201 208 211 214 218 219 217 217 215 208 197 189 181 174 169 165 161 160 159 156 157 157 157 162 165 154 141 136 127 112 99 90 81 68 58 50 36 18 7 8 14 14 8 2 357 354 351 349 348 344 340 337 335 332 328 325 323 322 322 320 316 309 298 288 282 279
239 201 188 182 177 174 172 168 165 163 162 161 162 162 157 147 128 113 113 134 162 183 193 201 206 205 202 203 199 184 170 166 164 161 158 156 155 152 149 148 148 147 154 156 143 128 119 113 109 104 95 81 69 60 48 28 16 13 11 9 5 1 359 357 357 357 356 354 350 344 341 339 336 333 330 330 332 332 330 325 316 302 291 285 282
235 206 189 180 175 171 170 167 165 164 164 164 164 163 161 157 146 132 121 115 115 122 133 149 168 177 176 175 174 167 160 157 155 153 152 150 149 148 146 141 136 133 136 139 131 123 116 112 111 109 98 83 71 57 41 30 25 17 7 1 360 358 357 358 1 3 2 359 355 350 347 345 342 339 337 338 339 340 339 337 331 316 301 291 284
216 200 188 182 177 172 170 169 166 164 163 163 163 161 156 153 148 141 135 126 117 112 113 122 133 142 146 150 153 153 152 150 146 145 145 143 142 144 143 136 128 122 119 120 120 120 117 112 109 106 99 86 71 55 43 34 26 18 8 2 359 357 357 360 4 6 4 1 358 354 352 351 351 350 347 347 348 349 347 346 343 335 322 306 294
191 183 178 177 174 169 167 166 164 163 161 159 156 153 149 146 143 138 133 129 124 120 119 121 124 128 133 137 140 142 142 141 139 139 141 142 146 149 146 136 126 119 114 112 113 113 110 107 104 99 88 76 63 53 47 38 31 27 19 7 359 358 1 4 8 8 6 4 1 359 358 358 358 0 359 358 0 3 0 356 354 356 4 11 16
157 166 167 166 164 159 157 156 156 155 152 149 146 142 138 136 134 131 127 125 124 124 124 124 124 124 125 128 133 135 135 136 136 137 138 141 149 154 147 134 124 118 115 113 112 109 103 100 98 90 78 72 66 59 54 47 37 32 26 15 6 4 6 9 9 6 6 7 5 3 3 4 6 9 9 9 13 16 14 12 9 13 28 44 54
120 147 152 153 153 152 150 148 146 144 141 138 137 135 132 128 126 126 125 124 123 122 123 124 124 122 121 124 129 133 134 134 134 133 133 137 142 139 130 122 118 114 112 110 109 106 101 97 94 90 82 77 72 66 59 53 42 35 30 22 16 14 13 11 9 6 5 7 7 6 7 9 13 18 20 22 26 28 28 29 28 26 30 38 44
105 130 143 144 144 144 144 142 140 138 136 133 132 131 128 126 123 123 123 123 122 121 122 122 123 124 126 128 130 132 131 130 130 129 128 127 124 120 116 113 109 105 104 103 102 101 100 97 94 89 83 77 73 68 61 53 45 37 29 22 21 22 16 9 7 5 2 1 4 8 11 13 17 24 31 36 40 43 45 45 45 45 45 46 45
104 116 130 137 135 133 134 134 134 134 134 133 131 128 125 123 123 124 125 124 123 124 124 123 125 130 133 135 138 139 136 130 127 125 121 115 111 108 106 104 101 98 97 98 98 98 97 92 86 81 76 72 70 64 54 46 39 30 24 23 22 20 13 7 5 6 4 1 3 8 12 16 23 31 39 44 48 55 60 60 59 61 64 65 64
107 105 108 120 128 129 127 125 125 128 130 130 129 126 121 121 122 123 124 123 123 124 126 127 133 139 140 140 142 143 136 127 122 118 114 109 105 101 97 95 96 97 96 96 95 93 88 82 76 73 71 68 64 58 48 39 33 29 28 27 20 14 12 9 6 8 9 8 5 4 8 18 28 33 36 37 39 52 67 73 74 75 76 78 80
109 103 98 99 110 119 121 120 120 121 121 120 119 117 114 115 118 118 117 117 118 120 122 123 128 133 132 131 133 131 125 119 116 113 110 108 105 100 97 95 95 97 97 95 92 88 80 74 69 65 63 58 52 50 49 40 34 30 27 21 12 5 4 4 4 6 10 11 9 7 8 16 25 31 37 41 40 45 60 72 79 84 86 88 91
114 109 103 97 92 96 105 114 118 117 112 109 109 110 110 110 112 113 113 112 112 112 111 110 111 112 114 118 122 119 113 110 108 105 104 104 103 102 101 99 98 100 101 97 92 84 76 73 70 60 49 39 33 33 29 20 18 16 13 7 359 352 350 353 357 1 3 5 7 11 13 16 22 28 34 43 49 50 55 64 75 83 89 92 95
116 111 107 102 95 87 86 96 107 111 110 107 104 106 109 108 107 106 106 105 104 105 104 104 106 107 108 111 113 109 103 102 102 100 99 100 99 99 99 100 100 101 100 97 94 90 88 92 92 82 69 56 44 37 23 11 8 6 2 359 355 350 347 346 349 352 354 354 356 2 9 17 25 26 21 20 28 42 55 67 75 81 87 92 93
115 111 107 103 98 93 88 85 89 98 104 104 99 96 99 101 102 102 102 101 101 102 102 102 104 105 104 105 105 102 98 97 97 96 97 98 99 99 101 103 103 101 99 100 101 101 101 102 101 99 94 85 75 67 57 39 26 17 10 4 0 357 352 345 339 338 339 341 344 347 351 357 2 5 4 2 359 1 12 28 44 60 77 86 86
114 111 108 104 101 99 97 94 91 91 93 95 94 91 89 90 93 96 99 101 102 102 100 99 100 99 98 98 99 97 96 95 94 94 96 99 101 102 102 102 103 104 103 104 103 101 100 101 101 101 99 95 89 84 76 65 53 39 28 20 14 10 3 354 346 341 339 337 336 337 339 338 335 334 338 340 338 338 343 344 342 350 25 67 86
112 109 106 104 101 100 99 99 97 94 91 91 92 92 90 90 91 92 95 99 101 100 99 98 97 95 93 93 93 93 94 93 90 90 95 99 102 104 105 104 105 107 107 106 104 102 101 101 101 101 98 94 92 90 83 75 66 53 38 25 16 12 9 4 357 354 353 350 342 334 332 332 327 324 328 332 331 325 323 324 323 323 329 357 76
98 102 103 101 99 97 96 96 96 94 92 91 91 90 90 90 90 90 91 93 94 94 94 93 93 91 89 87 86 87 88 86 83 82 86 91 95 97 100 101 101 102 103 102 99 97 97 95 94 94 92 89 85 81 76 70 60 49 35 20 8 3 3 1 358 356 358 359 356 351 345 338 326 318 319 325 329 326 316 311 309 304 298 296 292
79 86 93 95 95 93 92 92 92 91 90 91 91 90 89 88 87 87 87 86 86 85 85 85 86 86 84 81 80 82 82 80 77 75 75 80 85 87 89 91 93 93 92 90 88 87 87 86 83 81 78 76 74 69 64 57 50 39 29 17 4 353 347 346 346 345 347 350 353 354 353 349 341 331 320 317 323 328 323 312 307 300 292 285 275
71 75 80 85 88 89 90 91 92 91 90 90 90 88 86 84 83 83 83 81 79 77 77 78 78 79 78 77 77 78 77 78 78 77 75 76 80 82 82 83 84 84 84 82 80 80 80 79 77 74 70 67 67 66 60 54 49 43 36 28 15 356 340 334 334 336 339 342 345 348 349 347 345 343 335 323 319 318 313 306 303 298 292 287 275
65 67 69 73 77 81 85 87 89 90 90 89 87 84 82 81 80 80 80 79 76 74 75 75 76 76 77 76 76 77 76 77 78 78 77 76 78 79 79 78 78 78 78 77 74 73 72 70 69 69 66 62 61 60 58 54 49 44 39 35 30 21 8 358 352 351 351 349 347 346 347 346 344 344 344 339 330 318 306 297 292 286 282 282 276